Location: Carbonear
(47.7333°N, 53.2500°W)
Time: 03:38:17
(UTC+00:00)

XW-2D - Pass Details

Date: 02 December 2022
Orbit: 489 x 502 km, 97.5° (Epoch: 28 January)

Event Time Altitude Azimuth Distance (km) Brightness Sun altitude
Rises 20:37:42 0° 161° (SSE) 2,589 ? -9.0°
Reaches altitude 10° 20:39:47 10° 160° (SSE) 1,706 ? -9.3°
Maximum altitude 20:43:26 75° 75° (ENE) 524 ? -9.9°
Drops below altitude 10° 20:46:59 11° 351° (N) 1,660 ? -10.5°
Sets 20:49:11 0° 349° (N) 2,592 ? -10.8°
